RH
42 41 40 40 38 37 38 36 39 43 42 43 43 42 42 45 45 42 41 40 40 42 42 41 38 36 39 39 42 45 47 51 54 55 55 52 51 50 45 41 44 47 43 40 44 44 42 37 33 34 33 34 33 30 30 29 28 27 25 25 25 21 16 13 9 9 10 8 7 9 11 14 22 25 23 23 23 25 25 25 26 25 25 25 23 21 18 15 13 14 16 17 20 19 17 14 7
43 42 41 39 39 38 39 38 42 47 44 45 45 44 45 46 45 42 43 43 41 42 44 44 41 38 37 39 42 44 46 48 49 50 50 51 52 50 45 39 40 46 46 44 46 44 42 37 33 34 32 32 32 32 33 32 29 27 25 26 27 25 19 13 9 11 12 10 8 11 13 12 16 24 24 23 23 24 25 25 25 25 26 25 25 24 19 17 14 10 9 10 15 17 13 9 6
44 44 42 40 40 39 40 40 43 46 43 45 45 45 45 43 43 43 43 42 41 43 44 44 43 41 38 40 42 43 44 45 46 48 48 49 52 52 49 43 40 44 47 48 48 45 43 37 33 33 32 31 32 34 34 33 30 27 25 25 27 25 18 13 11 11 13 12 10 12 19 18 14 19 24 25 25 24 26 26 25 26 27 25 24 23 18 14 10 6 6 6 8 11 8 5 5
45 46 44 41 41 41 44 44 46 47 44 47 45 45 47 44 44 44 41 39 41 44 43 43 44 43 40 39 41 43 42 42 45 47 47 47 50 52 50 46 42 42 46 50 49 45 43 38 33 32 32 30 32 35 33 31 30 29 25 23 24 21 15 13 10 9 11 14 14 10 15 21 15 14 22 27 26 25 26 25 25 25 25 25 24 22 20 13 7 5 5 5 5 6 5 5 5
45 47 46 42 43 44 47 47 48 46 43 47 45 44 48 45 45 45 42 39 42 44 43 42 44 44 41 37 37 41 41 41 43 44 47 46 48 52 49 46 43 41 45 50 49 44 42 39 31 29 31 29 31 34 32 29 29 29 26 23 22 17 13 11 9 8 8 13 17 13 13 20 18 14 19 25 27 26 26 26 25 26 23 24 23 19 20 15 6 5 5 6 6 5 6 5 5
46 48 49 44 44 45 48 49 47 46 44 46 45 45 46 44 44 44 41 39 42 45 43 42 43 43 42 39 34 35 39 40 41 42 45 45 46 50 48 46 43 40 44 49 48 43 41 38 29 25 28 28 29 32 32 28 27 27 25 21 20 15 12 11 8 8 7 8 13 14 18 21 18 18 19 22 26 28 27 27 27 25 24 25 24 17 18 17 7 5 6 6 6 5 6 5 5
47 50 50 48 47 47 52 53 51 50 46 45 46 45 44 43 43 42 41 39 42 45 44 43 41 41 43 42 36 32 34 37 38 39 43 42 44 48 47 46 43 40 44 48 46 43 41 36 28 25 25 26 26 28 29 25 23 23 21 19 17 14 12 12 10 8 7 7 8 12 19 19 14 18 21 19 21 28 27 25 27 25 23 26 26 17 13 14 7 6 6 5 6 5 5 5 5
48 51 51 52 54 53 55 54 53 52 47 46 48 45 44 44 42 43 44 42 43 46 46 45 42 40 42 43 41 34 31 33 35 37 39 40 41 44 45 44 42 40 43 47 44 43 41 36 33 30 26 23 22 23 24 21 19 18 18 16 15 14 13 12 10 9 8 7 7 9 18 19 13 16 20 19 17 23 24 19 23 24 19 22 25 18 13 13 7 6 6 5 5 5 5 5 5
49 53 53 55 57 56 57 57 55 54 50 49 49 46 45 46 45 45 46 45 45 45 47 48 45 41 41 43 42 37 32 31 33 35 37 38 39 41 43 41 39 39 43 47 44 43 41 37 37 36 31 24 20 19 19 17 16 15 15 15 15 14 13 11 10 10 8 8 7 8 16 18 15 16 17 19 16 17 21 18 20 20 16 18 23 19 18 16 8 5 6 5 5 5 5 5 5
53 55 57 60 60 57 59 59 58 56 53 50 50 49 47 47 46 46 46 46 45 44 47 49 47 43 43 43 42 39 35 31 31 34 35 38 39 38 40 39 37 37 40 45 45 43 42 39 39 39 35 26 21 19 17 16 15 14 14 15 15 14 13 11 10 9 8 8 7 7 11 15 14 15 17 19 16 14 17 19 20 18 14 18 22 18 20 20 14 7 5 5 5 5 5 5 5
57 59 59 64 64 59 59 59 61 60 56 52 52 52 47 47 47 47 48 47 45 45 47 48 48 46 46 45 42 40 36 31 29 31 34 37 38 38 38 37 37 37 38 43 44 43 42 41 40 41 37 28 23 22 20 18 16 14 13 13 15 15 13 11 9 8 8 8 7 7 8 14 15 13 15 16 14 12 12 14 18 17 11 15 20 16 17 18 17 11 6 5 5 6 5 5 5
59 66 66 68 67 62 61 61 63 62 59 56 53 52 49 49 49 50 50 48 47 46 47 48 49 48 51 52 45 41 37 32 28 27 32 36 37 38 39 38 37 37 37 41 44 43 42 41 41 41 37 28 25 26 24 22 19 15 13 12 14 14 13 11 9 7 7 7 7 7 7 12 14 12 12 11 10 10 9 9 12 15 10 10 13 11 10 10 12 11 7 6 5 6 6 6 6
63 70 71 70 69 67 64 63 66 63 62 60 54 54 52 50 51 51 50 49 49 47 47 48 49 49 52 54 49 45 40 36 31 27 30 33 36 38 39 39 38 37 36 39 42 43 41 41 41 42 38 29 27 29 28 26 23 18 14 12 12 12 12 10 9 7 6 7 7 7 7 8 10 9 9 7 8 8 7 7 7 10 9 7 9 8 7 6 6 7 6 6 6 6 6 6 6
68 69 69 70 71 70 66 64 66 64 64 63 56 56 55 51 50 52 50 51 50 48 48 47 48 50 51 53 52 49 45 42 37 30 29 31 34 36 38 41 40 37 36 38 41 42 41 41 40 41 39 32 30 32 32 31 27 22 18 13 11 11 11 9 8 8 6 6 6 6 6 6 7 7 7 7 7 7 7 7 6 7 7 7 8 7 6 6 6 6 6 6 6 6 6 6 6
71 70 71 73 73 71 68 65 68 68 68 64 59 58 57 53 51 52 51 52 51 49 49 49 49 50 50 53 53 50 48 47 43 37 30 28 31 35 37 40 42 40 37 36 39 42 41 40 39 40 40 36 33 34 34 34 31 27 23 17 12 10 9 8 8 8 7 7 6 6 6 6 6 7 7 7 7 7 7 7 7 7 7 6 6 6 6 6 6 6 6 6 6 6 6 6 6
74 74 75 75 73 73 69 67 70 71 71 68 62 61 60 56 54 54 51 51 51 50 50 51 50 50 49 50 52 51 51 50 48 45 37 29 28 32 37 40 42 42 39 36 37 41 41 40 39 39 39 38 36 35 34 34 33 30 28 23 18 14 11 9 8 8 7 7 7 7 7 7 7 7 7 7 7 7 7 7 7 7 7 7 6 7 7 7 7 7 7 7 7 7 7 7 7
75 76 79 77 74 73 70 69 70 71 72 71 66 63 65 62 57 56 53 52 52 51 51 52 51 50 50 49 49 50 51 52 50 50 46 36 30 30 34 39 42 43 40 36 35 37 40 40 39 39 38 38 38 36 36 35 33 32 30 28 25 22 17 14 12 10 8 8 8 7 8 7 7 7 7 7 7 7 7 7 7 8 8 8 8 8 8 8 9 9 9 8 9 9 9 9 9
77 81 81 78 75 72 72 73 71 71 72 73 69 66 68 66 62 58 55 55 55 54 53 53 53 51 50 48 48 49 51 53 53 52 50 41 34 31 31 34 39 41 40 37 33 33 37 39 39 39 38 37 38 37 36 36 34 33 32 30 29 28 25 21 19 16 12 9 8 8 8 8 8 9 9 9 9 9 9 9 9 9 9 9 9 9 9 9 9 9 9 9 10 10 10 11 11
77 85 82 75 75 72 72 75 73 73 73 74 72 68 69 68 65 61 57 57 56 57 57 55 55 53 49 47 47 50 51 53 54 54 52 43 34 32 32 32 33 36 38 37 34 31 33 36 37 38 38 37 37 37 35 36 35 34 32 31 30 30 29 27 25 22 20 15 11 10 9 9 9 10 10 10 11 11 11 10 10 10 9 9 9 9 9 9 9 9 9 9 10 11 11 11 11
75 82 83 76 75 73 72 75 74 73 74 74 73 71 70 69 66 63 59 58 58 59 59 58 58 55 50 48 48 50 52 54 54 55 54 47 36 32 32 33 31 29 30 33 34 33 31 33 36 37 37 38 37 36 35 35 35 34 32 31 31 31 31 30 27 25 24 21 17 13 11 10 10 10 10 10 10 10 10 10 10 10 10 9 9 9 9 8 8 8 9 9 10 10 11 11 11
76 75 76 77 78 74 71 73 76 75 74 75 74 72 71 70 68 65 61 59 61 60 59 59 60 57 53 51 49 50 52 55 55 55 54 50 42 34 31 32 33 30 27 27 30 32 30 29 32 36 37 38 38 37 36 35 35 35 33 31 30 31 31 31 29 28 26 24 22 18 15 12 12 11 10 10 10 10 10 10 10 10 10 10 10 10 9 9 9 9 9 10 10 10 11 11 11
78 73 70 75 80 76 70 71 75 77 76 75 75 74 72 70 69 67 64 61 63 61 58 59 59 59 57 55 53 53 55 56 55 55 54 52 47 40 33 31 33 34 32 29 27 28 28 27 27 30 34 37 39 38 38 37 36 36 34 32 31 31 30 30 30 30 29 27 25 23 19 16 14 13 12 12 11 10 9 9 10 10 11 11 12 12 12 12 11 11 11 12 12 12 12 12 12
75 74 70 72 76 76 72 71 74 76 76 76 76 75 73 71 69 67 64 62 63 63 61 60 59 59 58 57 57 56 57 57 56 56 54 53 50 46 39 34 32 33 34 33 31 30 29 28 26 26 29 32 35 37 37 38 38 37 36 35 33 31 30 28 28 29 29 29 28 26 23 19 17 15 15 14 12 11 11 11 11 12 13 14 14 14 14 14 14 14 13 14 14 14 14 13 13
74 73 72 69 70 72 73 73 74 75 75 76 76 75 74 74 72 67 63 62 64 67 66 64 62 60 58 57 57 57 58 58 58 58 57 55 52 50 47 42 38 36 36 36 34 33 33 32 30 28 27 28 30 31 33 34 35 35 36 36 34 32 30 27 24 23 24 26 27 26 24 22 19 18 16 15 13 13 14 14 15 15 16 16 17 16 16 16 15 15 15 15 14 14 13 13 12
75 73 73 71 70 70 73 75 75 75 76 76 76 76 74 75 74 69 65 64 65 68 68 66 65 63 61 59 59 59 59 60 60 61 61 58 57 55 52 49 45 41 40 40 38 35 35 36 37 34 31 29 30 29 29 29 30 31 31 31 31 30 28 24 21 19 18 19 22 23 22 21 19 18 16 16 16 16 17 17 17 17 17 17 17 16 16 15 14 14 13 13 12 12 11 11 10
73 73 75 75 74 72 72 74 75 76 77 78 77 78 76 75 75 70 66 67 68 68 67 67 67 65 65 63 62 61 60 61 61 61 61 61 61 60 55 53 49 45 43 42 42 39 36 36 38 38 36 32 31 30 29 27 26 26 24 24 25 25 23 22 20 19 16 16 17 18 19 19 18 17 17 18 18 18 18 18 17 17 17 16 15 14 14 13 12 12 11 11 10 9 9 10 10
72 73 75 76 77 77 75 74 75 75 76 79 80 80 78 78 77 70 67 69 69 68 67 67 68 67 67 66 65 65 63 62 61 61 62 63 64 61 57 55 52 49 48 45 43 43 41 39 39 40 38 34 31 29 28 26 24 22 21 21 21 21 21 21 19 18 17 17 17 17 18 18 19 18 18 19 19 19 19 18 18 18 17 16 15 14 14 14 14 14 13 12 11 11 11 12 13
75 77 77 76 77 78 79 76 76 74 74 77 79 81 81 82 78 70 70 72 71 70 68 68 70 70 68 68 67 68 67 65 64 63 63 64 65 62 59 58 54 51 50 46 45 47 46 45 44 45 44 41 36 31 29 27 26 24 24 24 24 24 24 23 21 20 19 19 19 19 18 18 18 18 18 19 19 20 20 20 20 19 19 19 18 18 18 18 18 17 17 16 17 18 19 19 19
79 81 81 79 79 79 78 79 77 74 74 72 74 79 79 79 77 72 73 74 72 71 70 70 71 72 71 71 70 69 70 68 66 65 62 63 66 64 62 59 57 54 52 50 51 51 50 48 47 48 49 49 46 42 38 34 32 31 30 29 30 30 30 29 28 27 25 24 23 21 20 18 17 17 17 18 19 19 19 19 19 20 21 21 20 21 22 22 23 24 25 24 26 27 28 28 28
85 85 84 84 85 78 73 78 78 76 74 70 73 76 72 75 77 76 77 76 73 72 72 71 71 72 73 72 72 70 70 69 67 66 64 63 65 66 64 63 61 59 55 54 54 53 51 51 50 50 52 52 51 51 50 45 41 37 34 33 32 31 31 31 32 32 32 31 28 25 23 21 18 17 16 16 16 17 17 18 20 23 23 22 23 25 26 28 30 32 32 31 31 32 32 32 31
88 87 87 89 85 75 73 77 78 78 76 70 74 75 68 71 75 76 79 78 76 74 72 73 71 71 71 71 72 70 69 69 68 68 67 66 66 66 66 65 64 62 58 56 55 55 53 53 53 53 53 54 54 54 55 54 52 48 45 42 40 39 38 39 39 39 39 38 37 34 30 27 24 21 18 17 16 16 17 18 21 24 24 23 25 28 30 32 34 34 34 33 32 31 31 30 30
88 89 89 87 81 75 76 77 75 77 77 74 77 76 68 68 71 72 76 78 78 78 75 74 71 70 70 70 69 68 67 67 68 69 69 68 67 67 67 67 65 63 60 56 55 55 55 55 54 54 54 54 54 55 56 57 58 57 55 53 52 51 50 49 49 49 48 49 49 47 45 42 38 34 31 28 27 26 25 25 26 28 28 28 29 30 32 33 34 34 34 33 31 30 30 30 30
88 87 85 82 80 79 78 77 75 75 78 78 77 74 68 68 69 70 73 74 77 81 80 77 74 71 69 70 69 67 66 65 66 68 68 68 68 67 67 67 65 62 60 57 55 55 55 56 56 56 56 56 56 56 56 57 57 57 57 57 56 56 55 55 55 55 55 55 55 55 55 54 52 50 47 45 44 42 40 38 37 37 37 36 36 35 35 35 36 36 35 34 33 32 32 32 33
87 86 82 79 82 83 81 80 79 78 79 81 80 75 69 69 71 71 72 72 72 76 80 79 77 73 70 70 69 67 65 64 64 67 68 67 65 65 65 65 65 62 60 58 55 53 53 54 56 58 58 59 60 60 60 59 58 58 57 58 57 57 56 56 56 56 57 56 57 57 58 58 59 58 57 56 55 54 52 50 47 45 43 42 41 40 39 39 39 39 38 38 37 36 36 37 37
83 86 84 82 84 86 85 80 79 82 81 81 81 77 71 72 74 72 72 72 69 69 74 78 78 76 72 70 69 68 66 64 62 64 68 68 65 64 63 63 63 63 62 61 58 55 52 51 53 56 58 60 62 63 63 63 62 61 60 61 59 57 56 57 56 55 55 56 56 57 57 58 59 59 60 60 60 60 59 58 56 53 50 48 46 45 44 44 43 42 43 43 42 42 42 43 43
81 85 87 89 90 87 86 83 81 84 85 83 79 75 73 74 75 74 73 70 68 67 68 72 76 76 74 72 70 69 67 65 63 61 63 66 65 64 63 62 61 62 62 63 63 60 57 54 52 52 54 57 60 62 62 63 63 63 63 62 61 59 59 59 58 56 56 56 56 56 56 56 57 57 58 59 59 59 59 60 60 59 57 55 53 51 51 51 50 50 50 51 51 51 51 52 52
81 87 90 91 91 87 86 87 84 85 88 86 81 76 73 73 73 73 71 69 68 68 66 67 71 74 74 73 71 70 68 65 64 62 61 63 64 63 63 62 61 61 62 65 66 65 64 62 58 55 53 53 54 56 58 60 61 62 62 62 62 62 62 62 60 59 58 58 58 57 56 56 56 56 56 56 56 55 56 56 57 58 58 58 57 57 57 57 56 57 57 58 58 58 58 58 59
81 85 86 87 88 88 87 87 87 87 87 86 84 81 75 72 72 70 70 70 69 69 68 65 65 69 71 73 73 71 69 66 63 62 60 60 60 60 61 62 62 61 62 65 67 67 67 65 62 58 56 54 52 53 55 57 59 60 61 62 63 63 63 62 62 61 60 60 60 60 59 59 58 57 56 55 54 53 53 53 53 54 55 56 57 58 58 59 59 59 59 59 59 59 59 60 61
84 87 89 89 87 87 88 87 88 89 88 87 88 84 77 74 72 70 70 69 69 68 68 66 63 65 68 71 73 73 71 67 63 61 59 57 57 59 61 62 62 62 62 62 63 64 64 63 60 58 57 56 54 53 54 55 57 58 58 58 58 59 60 60 60 60 61 61 61 62 61 60 60 59 58 56 54 53 53 53 52 53 53 54 54 55 55 56 55 55 55 55 55 56 56 57 58
84 88 93 92 88 88 90 89 89 91 91 90 91 87 80 76 73 71 69 66 66 66 67 67 65 64 66 68 71 71 70 68 64 62 60 58 58 60 61 63 63 63 63 61 60 59 58 57 55 54 54 53 53 52 52 53 53 53 53 53 52 52 53 55 55 55 57 60 61 61 59 59 57 56 56 55 54 53 52 52 52 52 52 52 51 51 51 50 50 50 50 50 51 51 50 51 51
80 83 88 91 92 94 93 92 92 93 94 90 90 90 81 75 74 69 65 63 61 62 64 66 66 65 65 66 68 68 69 67 64 63 61 59 59 60 60 62 61 62 63 63 62 59 56 55 54 52 50 49 49 48 49 50 51 51 51 51 49 47 46 47 48 47 48 52 56 57 56 55 54 53 53 52 51 51 50 50 49 49 49 49 48 47 47 46 46 46 46 46 46 46 46 46 46
72 77 84 89 92 95 95 94 93 93 94 91 91 93 81 71 72 69 64 62 59 60 62 63 65 66 66 66 65 65 66 66 64 61 59 58 58 57 57 58 58 57 59 61 61 59 57 54 52 51 49 47 46 46 47 47 48 49 49 48 46 44 42 42 42 41 42 44 47 51 52 51 51 50 49 48 46 46 46 46 46 45 44 43 42 42 42 42 41 41 41 41 40 41 41 42 40
66 70 77 84 89 95 97 96 96 96 96 93 92 95 85 72 72 70 66 64 62 61 62 61 62 62 64 65 62 61 62 63 64 61 58 56 57 56 56 58 58 56 55 56 56 56 55 54 53 52 49 46 44 45 46 47 46 46 45 44 43 43 41 40 40 40 41 42 43 45 47 47 46 45 44 43 42 41 41 41 41 40 39 38 38 38 37 37 37 37 37 36 35 36 37 37 33
63 62 66 76 83 89 92 92 96 96 94 94 92 94 91 79 70 67 66 64 62 60 59 59 59 58 60 60 58 57 56 58 62 63 63 62 63 62 61 61 60 58 56 55 55 54 53 53 53 52 50 46 43 42 44 44 43 43 42 40 40 41 41 41 41 42 42 42 43 43 43 43 41 40 38 37 36 37 37 37 37 37 36 35 35 35 34 34 34 33 33 33 32 32 32 33 31
60 60 62 67 72 79 82 85 91 93 93 95 89 89 91 78 64 62 62 60 59 58 56 55 55 54 55 55 55 55 54 56 60 64 65 64 64 63 61 61 61 59 57 55 54 54 53 51 50 50 50 47 44 41 41 39 38 38 39 40 39 38 39 40 41 42 43 42 41 40 40 40 39 38 37 35 34 34 33 33 34 34 34 34 34 34 34 33 33 33 33 33 31 30 30 30 31
61 62 63 64 69 74 76 80 86 91 95 91 85 85 83 69 59 57 57 56 56 55 55 52 51 52 53 54 54 54 54 55 57 60 61 61 60 60 60 60 59 58 56 54 52 51 51 51 50 48 47 46 43 40 37 34 33 33 34 37 39 39 38 39 40 40 41 40 38 37 37 37 38 38 37 35 34 33 32 31 31 32 32 33 33 33 33 34 34 34 34 34 33 32 31 31 32
64 66 66 66 69 71 74 76 79 89 90 80 78 80 77 69 59 54 53 54 53 53 54 54 52 52 52 53 55 56 57 56 57 59 59 60 59 58 57 56 56 56 54 53 51 49 48 49 50 49 47 45 43 41 38 35 34 33 32 33 35 36 38 40 41 41 41 40 37 36 35 34 35 36 36 36 35 34 33 33 34 34 34 34 34 33 33 34 34 35 35 36 36 36 36 36 36
67 72 69 66 69 70 74 76 79 88 82 67 69 74 78 75 60 50 51 51 50 51 52 54 54 51 49 51 53 55 57 57 58 59 59 58 55 53 52 51 51 51 50 50 50 48 47 46 46 46 46 45 44 43 42 40 39 38 37 35 34 34 34 36 38 39 39 38 36 35 35 35 35 36 36 36 36 36 36 36 37 37 37 37 37 37 37 37 37 38 38 39 40 41 41 42 42
66 71 71 70 72 76 81 81 82 84 72 61 64 71 79 73 52 47 49 46 47 49 49 50 51 52 52 53 54 54 55 56 56 57 57 57 55 52 50 48 47 46 46 46 46 46 46 45 44 43 42 43 44 45 45 43 41 40 40 40 40 39 38 38 38 38 37 36 35 36 36 36 36 36 36 36 36 37 37 37 38 38 38 39 39 39 40 40 40 41 42 43 44 44 45 45 46
64 65 66 69 72 77 80 77 78 77 66 59 63 73 80 66 47 49 51 46 46 47 47 49 49 51 54 53 53 53 54 56 56 56 55 54 54 53 51 49 46 45 44 44 44 43 43 43 43 42 43 43 43 45 45 45 45 43 42 43 43 45 45 45 45 45 43 41 39 38 37 36 36 36 36 36 36 37 37 37 39 40 40 40 40 40 40 40 41 42 43 44 44 45 45 46 45
66 62 63 67 66 70 71 68 72 73 64 61 67 76 75 56 45 50 49 47 47 45 46 48 47 47 48 48 50 52 53 56 56 56 54 52 51 51 50 49 47 46 44 43 43 44 44 45 45 45 45 44 43 43 43 45 47 46 45 46 47 49 49 49 49 49 48 46 44 42 40 38 37 36 36 37 37 37 37 38 39 39 39 40 39 39 39 38 39 40 41 43 43 43 43 43 44
63 64 68 70 65 64 66 67 70 71 69 70 72 74 64 47 42 45 44 44 48 49 46 43 45 46 45 47 50 52 53 53 53 52 51 50 49 48 48 48 47 46 45 44 43 43 44 45 45 46 46 45 43 42 40 41 43 44 45 46 48 48 48 49 48 49 49 48 46 45 44 42 41 39 38 37 37 37 37 38 38 39 39 39 39 38 37 37 38 39 40 41 42 42 42 41 42
56 62 64 66 67 68 71 70 69 71 74 71 67 66 58 46 41 41 42 44 49 55 52 47 48 48 49 53 55 55 53 51 51 50 50 50 49 49 48 47 47 46 46 45 44 44 43 43 43 43 44 45 44 43 42 41 40 42 43 44 45 45 44 44 45 46 48 47 47 47 46 45 43 42 40 39 37 36 36 36 36 37 37 38 37 37 37 37 38 38 39 40 41 41 42 42 43
52 58 56 56 63 67 70 72 73 76 77 67 60 62 58 51 46 43 44 46 48 56 58 56 55 54 55 58 57 54 51 49 49 48 48 49 48 49 48 48 48 47 46 46 46 46 45 45 44 43 43 44 44 44 44 44 43 44 44 45 46 46 45 46 45 46 46 46 47 48 47 46 43 41 39 38 37 35 34 33 33 33 34 34 35 36 37 37 38 39 39 40 41 42 42 42 44
46 50 50 52 56 59 65 69 68 69 72 64 56 57 55 50 46 42 42 44 46 54 60 60 60 60 60 57 52 49 48 48 49 48 48 48 47 48 48 48 48 48 48 48 48 47 46 47 46 46 47 46 46 46 47 47 47 47 48 48 48 48 48 48 47 46 45 45 46 46 46 46 45 43 40 39 37 35 34 33 32 32 33 33 34 35 36 37 37 38 39 40 41 43 43 42 43
51 51 52 54 54 56 62 65 61 63 69 66 59 56 54 49 44 40 40 42 46 53 59 63 63 59 56 54 51 50 49 50 51 51 51 49 50 50 49 49 49 48 49 49 49 49 48 48 47 47 48 48 48 49 49 50 49 50 50 50 49 49 48 48 47 46 46 46 46 46 46 46 46 45 43 42 40 38 37 36 35 35 35 35 36 36 38 38 38 38 39 40 40 41 42 42 43
67 65 64 62 59 58 59 60 60 63 68 69 65 58 50 45 43 40 41 43 47 52 57 62 62 58 54 52 52 52 51 51 51 51 52 51 51 51 51 51 50 49 49 49 49 49 49 49 48 47 47 47 48 48 48 49 50 50 50 50 49 49 48 48 47 46 46 46 46 46 46 45 45 45 43 42 42 41 40 39 39 39 38 38 38 38 39 39 39 39 39 40 40 41 41 40 42
80 79 78 75 73 71 70 67 62 61 63 63 66 61 48 40 40 40 43 48 49 52 56 58 58 58 57 55 54 55 55 54 54 52 51 50 49 49 49 49 49 49 50 49 50 50 50 50 49 49 48 47 48 48 48 48 48 49 50 50 50 49 48 47 46 45 46 45 45 45 45 45 45 45 44 43 43 43 43 42 42 43 42 42 41 41 42 41 40 40 40 39 40 40 40 40 41